Location: Neuvy Saint Sepulchre
(46.5953°N, 1.8122°E)
Time: 09:31:59
(UTC+02:00)

ISS - Pass Details

Date: 14 July 2021
Orbit: 419 x 421 km, 51.6° (Epoch: 04 August)

Event Time Altitude Azimuth Distance (km) Brightness Sun altitude
Rises 02:04:41 0° 280° (W) 2,369 0.2 -21.7°
Reaches altitude 10° 02:06:55 10° 290° (WNW) 1,505 -0.7 -21.7°
Maximum altitude 02:10:01 33° 357° (N) 728 -2.0 -21.7°
Drops below altitude 10° 02:13:08 10° 64° (ENE) 1,504 -0.6 -21.7°
Sets 02:15:21 0° 74° (ENE) 2,368 0.3 -21.6°
